Location: North Evanston
(42.0634°N, 87.6976°W)
Time: 19:53:03
(UTC+00:00)

Injun/Solrad 3 - Pass Details

Date: 15 May 2026
Orbit: 867 x 989 km, 66.8° (Epoch: 6 June)

Event Time Altitude Azimuth Distance (km) Brightness Sun altitude
Rises 22:26:48 0° 241° (WSW) 3,521 11.8 27.4°
Reaches altitude 10° 22:29:34 10° 252° (WSW) 2,603 11.7 26.9°
Maximum altitude 22:34:53 31° 313° (NW) 1,582 10.2 25.9°
Drops below altitude 10° 22:40:23 10° 15° (NNE) 2,690 10.3 24.9°
Sets 22:43:18 0° 25° (NNE) 3,657 10.8 24.3°
